Regional Weather Roundup
Issued by NWS

Home | Current Version | Previous Version | Graphics & Text | Print | Product List | Glossary On
Versions: 1 2 3 4 5 6 7 8 9 10 11 12 13 14 15 16 17 18 19 20 21 22 23 24 25 26 27 28 29 30 31 32 33 34 35 36 37 38 39 40 41 42 43 44 45 46 47 48 49 50
000
ASUS43 KIND 270809
RWRIN

WEATHER ROUNDUP FOR INDIANA
NATIONAL WEATHER SERVICE INDIANAPOLIS IN
400 AM EDT WED MAY 27 2015

NOTE: "FAIR" INDICATES FEW OR NO CLOUDS BELOW 12,000 FEET WITH NO
SIGNIFICANT WEATHER AND/OR OBSTRUCTIONS TO VISIBILITY.

* - STATION DOES NOT REPORT WEATHER SUCH AS PRECIPITATION OR FOG.

+ - STATION NOT QUALITY CONTROLLED BY THE NATIONAL WEATHER SERVICE.
    USE DATA WITH CAUTION...ESPECIALLY DEWPOINT AND RELATIVE
    HUMIDITY OBSERVATIONS.

INZ001>003-010>013-019-020-270900-
NORTHWEST INDIANA

CITY           SKY/WX    TMP DP  RH WIND       PRES   REMARKS
GARY /AIRPORT/ CLEAR     70  62  75 S8        29.87S
KNOX *+        MOCLDY    64  59  82 SW13      29.90S
LA PORTE +     PTCLDY    68  61  77 SW13G21   29.90S
MICHIGAN CITY+ MOCLDY    66  57  72 SW9       29.89R
MONTICELLO +   CLEAR     65  61  88 SW10      29.94R
RENSSELAER +   CLOUDY    66  63  88 S12       29.92S
VALPARAISO     PTCLDY    66  60  81 SW14      29.90S

$$

LMZ046-743>745-270900-
SOUTHERN LAKE MICHIGAN

STATION/POSITION TIME  TEMP    WIND        PRES    WAVE
                       AIR SEA DIR/SP/G            HT
                 (UTC) (F)     (DEG/KT/KT) (MB)    (FT)
BURNS HARBOR     0800   69     210/ 14/ 18 1011.9S
MICHIGAN CITY    0800   68     190/ 17/ 24   N/A
5NW MICH CITY    0800   63 52  220/ 14/ 19   N/A     2

$$

INZ004-005-014>016-021>024-270900-
NORTH CENTRAL INDIANA

CITY           SKY/WX    TMP DP  RH WIND       PRES   REMARKS
GOSHEN         CLEAR     65  59  81 S14       29.92S
LOGANSPORT +   CLEAR     64  55  72 SW14      29.96S
PERU/GRISSOM   CLEAR     66  60  82 SW14      29.94F
ROCHESTER +    CLEAR     68  61  77 S12       29.94S
SOUTH BEND     CLEAR     68  59  73 SW14G24   29.89F
WARSAW +       CLEAR     66  59  77 SW8       29.94S

$$

INZ006>009-017-018-025>027-270900-
NORTHEAST INDIANA

CITY           SKY/WX    TMP DP  RH WIND       PRES   REMARKS
ANGOLA *+      CLEAR     63  54  72 S5        29.94S
AUBURN +       CLEAR     64  57  77 SW6       29.96S
FORT WAYNE     PTCLDY    64  59  83 SW10      29.97S
HUNTINGTON +   CLEAR     65  59  81 SW7       29.97S

$$

INZ028-029-035-036-043>045-051>053-270900-
WEST CENTRAL INDIANA

CITY           SKY/WX    TMP DP  RH WIND       PRES   REMARKS
CRAWFORDSVL +  CLEAR     63  56  79 S9        29.98S
GREENCASTLE +  CLEAR     63  57  82 S3        30.00F
LAFAYETTE      CLEAR     65  60  84 SW7       29.95R
TERRE HAUTE    CLEAR     66  61  84 S8        29.99S

$$

INZ030>032-037>040-046>048-054>057-064-065-270900-
CENTRAL INDIANA

CITY           SKY/WX    TMP DP  RH WIND       PRES   REMARKS
CP ATTERBURY + CLEAR     63  59  88 CALM      30.02F
FISHERS *+     CLEAR     63  61  94 SW6       30.00S
FRANKFORT +    CLEAR     65  60  86 S6        29.99S
GREENWOOD *+   CLEAR     63  57  82 S6        30.02S
INDIANAPOLIS   CLEAR     64  59  83 S8        29.98F
-EAGLE CREEK   CLEAR     65  60  84 SW7       29.99S
KOKOMO *+      CLEAR     66  59  77 SW16G22   29.96F
MARION +       PTCLDY    65  58  80 SW10      29.99S
MT COMFORT *+  CLEAR     63  63 100 S6        30.01S
SHELBYVILLE    CLEAR     66  60  81 S9        30.01S
ZIONSVILLE +   CLEAR     65  58  78 SW8       30.00S

$$

INZ033-034-041-042-049-050-058-059-270900-
EAST CENTRAL INDIANA

CITY           SKY/WX    TMP DP  RH WIND       PRES   REMARKS
MUNCIE         PTCLDY    66  60  81 SW9       30.00S

$$

INZ060-061-067>069-081>083-085>088-270900-
SOUTHWEST INDIANA

CITY           SKY/WX    TMP DP  RH WIND       PRES   REMARKS
EVANSVILLE     CLEAR     65  60  84 S5        30.03S
HUNTINGBURG *+ CLEAR     63  57  82 S5        30.04R
WASHINGTON +   CLEAR     65  61  86 S5        30.01R

$$

INZ062-063-066-070>080-084-089>092-270900-
SOUTH CENTRAL AND SOUTHEAST INDIANA

CITY           SKY/WX    TMP DP  RH WIND       PRES   REMARKS
BLOOMINGTON    CLEAR     65  61  87 SW6       30.02S
MADISON *+     PTCLDY    64  63  94 S5        30.07S
NORTH VERNON + PTCLDY    64  64 100 CALM      30.05S FOG
SEYMOUR +      PTCLDY    64  63  94 S7        30.03S

$$



USA.gov is the U.S. government's official web portal to all federal, state and local government web resources and services.